Time,TemperatureF,DewpointF,PressureIn,WindDirection,WindDirectionDegrees,WindSpeedMPH,WindSpeedGustMPH,Humidity,HourlyPrecipIn,Conditions,Clouds,dailyrainin,SoftwareType,DateUTC
2013-03-24 00:03:00,37.0,36.0,29.80,SE,139,4.0,8.0,96,0.00,,,0.04,,2013-03-24 04:03:00,
2013-03-24 00:13:00,37.0,36.0,29.80,SE,139,4.0,8.0,96,0.00,,,0.04,,2013-03-24 04:13:00,
2013-03-24 00:23:00,37.0,36.0,29.80,SE,134,7.0,11.0,96,0.00,,,0.04,,2013-03-24 04:23:00,
2013-03-24 00:33:00,37.0,36.0,29.79,SE,130,2.0,10.0,96,0.00,,,0.04,,2013-03-24 04:33:00,
2013-03-24 00:43:00,37.0,36.0,29.79,SE,130,2.0,10.0,96,0.00,,,0.04,,2013-03-24 04:43:00,
2013-03-24 00:53:00,37.0,36.0,29.79,East,98,5.0,10.0,97,0.00,,,0.04,,2013-03-24 04:53:00,
2013-03-24 01:02:00,37.0,36.0,29.78,ESE,111,2.0,10.0,97,0.00,,,0.04,,2013-03-24 05:02:00,
2013-03-24 01:13:00,37.0,36.0,29.78,ESE,111,2.0,10.0,97,0.00,,,0.04,,2013-03-24 05:13:00,
2013-03-24 01:23:00,37.0,36.0,29.79,SE,134,0.0,6.0,97,0.00,,,0.04,,2013-03-24 05:23:00,
2013-03-24 01:32:00,37.0,36.0,29.78,NNE,19,1.0,8.0,96,0.00,,,0.04,,2013-03-24 05:32:00,
2013-03-24 01:42:00,37.0,36.0,29.78,NNE,19,1.0,8.0,96,0.00,,,0.04,,2013-03-24 05:42:00,
2013-03-24 01:52:00,37.0,35.0,29.81,East,93,1.0,5.0,94,0.00,,,0.04,,2013-03-24 05:52:00,
2013-03-24 02:02:00,37.0,34.0,29.82,SE,140,3.0,7.0,88,0.00,,,0.04,,2013-03-24 06:02:00,
2013-03-24 02:12:00,37.0,34.0,29.82,SE,140,3.0,7.0,88,0.00,,,0.04,,2013-03-24 06:12:00,
2013-03-24 02:22:00,38.0,34.0,29.82,SSE,161,6.0,9.0,87,0.00,,,0.04,,2013-03-24 06:22:00,
2013-03-24 02:32:00,37.0,34.0,29.82,SSE,148,2.0,9.0,90,0.01,,,0.05,,2013-03-24 06:32:00,
2013-03-24 02:42:00,37.0,34.0,29.82,SSE,148,2.0,9.0,90,0.01,,,0.05,,2013-03-24 06:42:00,
2013-03-24 02:52:00,37.0,35.0,29.80,ESE,108,3.0,8.0,92,0.02,,,0.06,,2013-03-24 06:52:00,
2013-03-24 03:02:00,37.0,35.0,29.77,NNE,24,1.0,9.0,94,0.03,,,0.07,,2013-03-24 07:02:00,
2013-03-24 03:12:00,37.0,35.0,29.77,NNE,24,1.0,9.0,94,0.03,,,0.07,,2013-03-24 07:12:00,
2013-03-24 03:22:00,36.0,35.0,29.75,SE,126,3.0,11.0,95,0.04,,,0.08,,2013-03-24 07:22:00,
2013-03-24 03:32:00,36.0,35.0,29.74,SE,141,2.0,10.0,95,0.04,,,0.09,,2013-03-24 07:32:00,
2013-03-24 03:42:00,36.0,35.0,29.74,SE,141,2.0,10.0,95,0.04,,,0.09,,2013-03-24 07:42:00,
2013-03-24 03:52:00,36.0,35.0,29.74,ENE,69,5.0,12.0,96,0.05,,,0.11,,2013-03-24 07:52:00,
2013-03-24 04:03:00,36.0,35.0,29.73,ENE,61,5.0,10.0,97,0.04,,,0.11,,2013-03-24 08:03:00,
2013-03-24 04:12:00,36.0,35.0,29.73,ENE,61,5.0,10.0,97,0.04,,,0.11,,2013-03-24 08:12:00,
2013-03-24 04:22:00,36.0,35.0,29.73,East,101,4.0,11.0,97,0.04,,,0.12,,2013-03-24 08:22:00,
2013-03-24 04:32:00,35.0,34.0,29.72,NNW,340,2.0,11.0,97,0.05,,,0.14,,2013-03-24 08:32:00,
2013-03-24 04:42:00,35.0,34.0,29.72,NNW,340,2.0,11.0,97,0.05,,,0.14,,2013-03-24 08:42:00,
2013-03-24 04:52:00,35.0,34.0,29.71,NE,49,4.0,11.0,97,0.05,,,0.16,,2013-03-24 08:52:00,
2013-03-24 05:02:00,35.0,34.0,29.70,NNE,14,3.0,13.0,97,0.07,,,0.18,,2013-03-24 09:02:00,
2013-03-24 05:12:00,35.0,34.0,29.70,NNE,14,3.0,13.0,97,0.07,,,0.18,,2013-03-24 09:12:00,
2013-03-24 05:22:00,35.0,34.0,29.70,SSW,201,2.0,14.0,97,0.07,,,0.19,,2013-03-24 09:22:00,
2013-03-24 05:33:00,35.0,34.0,29.69,ESE,112,1.0,5.0,97,0.07,,,0.21,,2013-03-24 09:33:00,
2013-03-24 05:42:00,35.0,34.0,29.69,ESE,112,1.0,5.0,97,0.07,,,0.21,,2013-03-24 09:42:00,
2013-03-24 05:53:00,35.0,34.0,29.70,East,97,3.0,8.0,97,0.07,,,0.23,,2013-03-24 09:53:00,
2013-03-24 06:03:00,35.0,34.0,29.66,NE,51,5.0,15.0,98,0.07,,,0.25,,2013-03-24 10:03:00,
2013-03-24 06:12:00,35.0,34.0,29.66,NE,51,5.0,15.0,98,0.07,,,0.25,,2013-03-24 10:12:00,
2013-03-24 06:23:00,35.0,34.0,29.64,SSE,153,3.0,13.0,98,0.06,,,0.25,,2013-03-24 10:23:00,
2013-03-24 06:33:00,35.0,34.0,29.65,NNW,348,2.0,13.0,98,0.06,,,0.27,,2013-03-24 10:33:00,
2013-03-24 06:42:00,35.0,34.0,29.65,NNW,348,2.0,13.0,98,0.06,,,0.27,,2013-03-24 10:42:00,
2013-03-24 06:52:00,35.0,34.0,29.62,SE,139,2.0,9.0,98,0.05,,,0.28,,2013-03-24 10:52:00,
2013-03-24 07:03:00,35.0,34.0,29.59,East,97,4.0,12.0,98,0.03,,,0.28,,2013-03-24 11:03:00,
2013-03-24 07:12:00,35.0,34.0,29.59,East,97,4.0,12.0,98,0.03,,,0.28,,2013-03-24 11:12:00,
2013-03-24 07:22:00,35.0,34.0,29.59,North,355,3.0,13.0,98,0.04,,,0.29,,2013-03-24 11:22:00,
2013-03-24 07:33:00,35.0,34.0,29.60,NW,309,4.0,13.0,98,0.02,,,0.29,,2013-03-24 11:33:00,
2013-03-24 07:42:00,35.0,34.0,29.60,NW,309,4.0,13.0,98,0.02,,,0.29,,2013-03-24 11:42:00,
2013-03-24 07:52:00,35.0,34.0,29.59,SW,233,2.0,10.0,98,0.05,,,0.33,,2013-03-24 11:52:00,
2013-03-24 08:03:00,35.0,34.0,29.63,NE,35,5.0,13.0,98,0.09,,,0.37,,2013-03-24 12:03:00,
2013-03-24 08:12:00,35.0,34.0,29.63,NE,35,5.0,13.0,98,0.09,,,0.37,,2013-03-24 12:12:00,
2013-03-24 08:22:00,35.0,34.0,29.67,South,171,2.0,8.0,98,0.14,,,0.39,,2013-03-24 12:22:00,
2013-03-24 08:32:00,35.0,34.0,29.70,SE,144,2.0,10.0,98,0.23,,,0.48,,2013-03-24 12:32:00,
2013-03-24 08:42:00,35.0,34.0,29.70,SE,144,2.0,10.0,98,0.23,,,0.48,,2013-03-24 12:42:00,
2013-03-24 08:52:00,34.0,34.0,29.60,ESE,103,7.0,25.0,98,0.25,,,0.54,,2013-03-24 12:52:00,
2013-03-24 09:02:00,34.0,34.0,29.62,SSW,202,7.0,17.0,98,0.21,,,0.54,,2013-03-24 13:02:00,
2013-03-24 09:13:00,34.0,34.0,29.62,SSW,202,7.0,17.0,98,0.21,,,0.54,,2013-03-24 13:13:00,
2013-03-24 09:22:00,34.0,34.0,29.61,NNW,346,2.0,14.0,98,0.16,,,0.55,,2013-03-24 13:22:00,
2013-03-24 09:32:00,33.0,32.0,29.60,North,5,4.0,13.0,98,0.07,,,0.55,,2013-03-24 13:32:00,
2013-03-24 09:42:00,33.0,32.0,29.60,North,5,4.0,13.0,98,0.07,,,0.55,,2013-03-24 13:42:00,
2013-03-24 09:52:00,33.0,32.0,29.61,South,174,4.0,10.0,98,0.01,,,0.55,,2013-03-24 13:52:00,
2013-03-24 10:02:00,33.0,32.0,29.61,West,268,2.0,11.0,98,0.01,,,0.55,,2013-03-24 14:02:00,
2013-03-24 10:12:00,33.0,32.0,29.61,West,268,2.0,11.0,98,0.01,,,0.55,,2013-03-24 14:12:00,
2013-03-24 10:22:00,33.0,32.0,29.60,SE,132,3.0,12.0,98,0.00,,,0.55,,2013-03-24 14:22:00,
2013-03-24 10:32:00,33.0,32.0,29.60,WNW,289,4.0,11.0,98,0.00,,,0.55,,2013-03-24 14:32:00,
2013-03-24 10:42:00,33.0,32.0,29.60,WNW,289,4.0,11.0,98,0.00,,,0.55,,2013-03-24 14:42:00,
2013-03-24 10:53:00,32.0,32.0,29.59,West,266,4.0,15.0,98,0.00,,,0.55,,2013-03-24 14:53:00,
2013-03-24 11:02:00,33.0,32.0,29.59,NNE,17,5.0,14.0,98,0.01,,,0.56,,2013-03-24 15:02:00,
2013-03-24 11:12:00,33.0,32.0,29.59,NNE,17,5.0,14.0,98,0.01,,,0.56,,2013-03-24 15:12:00,
2013-03-24 11:22:00,33.0,32.0,29.58,SW,230,4.0,19.0,98,0.01,,,0.56,,2013-03-24 15:22:00,
2013-03-24 11:33:00,32.0,32.0,29.56,East,100,4.0,16.0,98,0.02,,,0.57,,2013-03-24 15:33:00,
2013-03-24 11:43:00,32.0,32.0,29.56,East,100,4.0,16.0,98,0.02,,,0.57,,2013-03-24 15:43:00,
2013-03-24 11:53:00,33.0,33.0,29.56,SW,223,4.0,13.0,99,0.02,,,0.57,,2013-03-24 15:53:00,
2013-03-24 12:03:00,33.0,33.0,29.56,SW,221,4.0,14.0,99,0.01,,,0.57,,2013-03-24 16:03:00,
2013-03-24 12:13:00,33.0,33.0,29.56,SW,221,4.0,14.0,99,0.01,,,0.57,,2013-03-24 16:13:00,
2013-03-24 12:23:00,33.0,33.0,29.56,SSE,153,3.0,12.0,99,0.02,,,0.58,,2013-03-24 16:23:00,
2013-03-24 12:33:00,33.0,32.0,29.56,NNW,342,3.0,23.0,98,0.01,,,0.58,,2013-03-24 16:33:00,
2013-03-24 12:42:00,33.0,32.0,29.56,NNW,342,3.0,23.0,98,0.01,,,0.58,,2013-03-24 16:42:00,
2013-03-24 12:52:00,33.0,32.0,29.54,NW,321,5.0,17.0,98,0.01,,,0.58,,2013-03-24 16:52:00,
2013-03-24 13:02:00,34.0,34.0,29.54,SSW,201,2.0,10.0,99,0.01,,,0.58,,2013-03-24 17:02:00,
2013-03-24 13:12:00,34.0,34.0,29.54,SSW,201,2.0,10.0,99,0.01,,,0.58,,2013-03-24 17:12:00,
2013-03-24 13:23:00,33.0,32.0,29.53,NNW,340,4.0,9.0,98,0.00,,,0.58,,2013-03-24 17:23:00,
2013-03-24 13:33:00,34.0,34.0,29.53,ESE,106,2.0,6.0,99,0.00,,,0.58,,2013-03-24 17:33:00,
2013-03-24 13:42:00,34.0,34.0,29.53,ESE,106,2.0,6.0,99,0.00,,,0.58,,2013-03-24 17:42:00,
2013-03-24 13:53:00,34.0,34.0,29.53,ENE,73,2.0,14.0,99,0.00,,,0.58,,2013-03-24 17:53:00,
2013-03-24 14:03:00,35.0,35.0,29.53,SE,133,2.0,8.0,99,0.00,,,0.58,,2013-03-24 18:03:00,
2013-03-24 14:12:00,35.0,35.0,29.53,SE,133,2.0,8.0,99,0.00,,,0.58,,2013-03-24 18:12:00,
2013-03-24 14:22:00,36.0,36.0,29.52,ESE,117,0.0,4.0,99,0.00,,,0.58,,2013-03-24 18:22:00,
2013-03-24 14:33:00,35.0,35.0,29.51,NNE,30,3.0,7.0,99,0.01,,,0.59,,2013-03-24 18:33:00,
2013-03-24 14:43:00,35.0,35.0,29.51,NNE,30,3.0,7.0,99,0.01,,,0.59,,2013-03-24 18:43:00,
2013-03-24 14:52:00,36.0,36.0,29.52,ENE,65,2.0,5.0,99,0.01,,,0.59,,2013-03-24 18:52:00,
2013-03-24 15:02:00,36.0,36.0,29.50,NNE,32,0.0,3.0,99,0.01,,,0.59,,2013-03-24 19:02:00,
2013-03-24 15:12:00,36.0,36.0,29.50,NNE,32,0.0,3.0,99,0.01,,,0.59,,2013-03-24 19:12:00,
2013-03-24 15:22:00,36.0,36.0,29.49,ESE,121,0.0,4.0,99,0.01,,,0.59,,2013-03-24 19:22:00,
2013-03-24 15:32:00,36.0,36.0,29.49,ENE,77,1.0,4.0,99,0.00,,,0.59,,2013-03-24 19:32:00,
2013-03-24 15:43:00,36.0,36.0,29.49,ENE,77,1.0,4.0,99,0.00,,,0.59,,2013-03-24 19:43:00,
2013-03-24 15:53:00,37.0,37.0,29.48,ENE,76,2.0,7.0,99,0.00,,,0.59,,2013-03-24 19:53:00,
2013-03-24 16:03:00,37.0,37.0,29.47,East,82,0.0,3.0,99,0.00,,,0.59,,2013-03-24 20:03:00,
2013-03-24 16:12:00,37.0,37.0,29.47,East,82,0.0,3.0,99,0.00,,,0.59,,2013-03-24 20:12:00,
2013-03-24 16:22:00,36.0,36.0,29.45,East,94,1.0,11.0,99,0.00,,,0.59,,2013-03-24 20:22:00,
2013-03-24 16:32:00,36.0,36.0,29.44,NNW,344,1.0,9.0,99,0.00,,,0.59,,2013-03-24 20:32:00,
2013-03-24 16:42:00,36.0,36.0,29.44,NNW,344,1.0,9.0,99,0.00,,,0.59,,2013-03-24 20:42:00,
2013-03-24 16:53:00,35.0,35.0,29.44,ESE,117,1.0,7.0,99,0.00,,,0.59,,2013-03-24 20:53:00,
2013-03-24 17:02:00,36.0,36.0,29.44,ESE,108,0.0,3.0,99,0.00,,,0.59,,2013-03-24 21:02:00,
2013-03-24 17:12:00,36.0,36.0,29.44,ESE,108,0.0,3.0,99,0.00,,,0.59,,2013-03-24 21:12:00,
2013-03-24 17:22:00,36.0,36.0,29.44,ENE,77,0.0,5.0,99,0.00,,,0.59,,2013-03-24 21:22:00,
2013-03-24 17:33:00,35.0,35.0,29.44,East,79,2.0,5.0,99,0.00,,,0.59,,2013-03-24 21:33:00,
2013-03-24 17:43:00,35.0,35.0,29.44,East,79,2.0,5.0,99,0.00,,,0.59,,2013-03-24 21:43:00,
2013-03-24 17:53:00,35.0,35.0,29.44,SSE,168,0.0,3.0,99,0.00,,,0.59,,2013-03-24 21:53:00,
2013-03-24 18:03:00,35.0,35.0,29.44,East,94,0.0,3.0,99,0.00,,,0.59,,2013-03-24 22:03:00,
2013-03-24 18:13:00,35.0,35.0,29.44,East,94,0.0,3.0,99,0.00,,,0.59,,2013-03-24 22:13:00,
2013-03-24 18:23:00,35.0,35.0,29.44,ESE,105,0.0,4.0,99,0.00,,,0.59,,2013-03-24 22:23:00,
2013-03-24 18:33:00,35.0,35.0,29.44,ESE,117,0.0,4.0,99,0.00,,,0.59,,2013-03-24 22:33:00,
2013-03-24 18:43:00,35.0,35.0,29.44,ESE,117,0.0,4.0,99,0.00,,,0.59,,2013-03-24 22:43:00,
2013-03-24 18:53:00,34.0,34.0,29.44,ESE,119,0.0,5.0,99,0.00,,,0.59,,2013-03-24 22:53:00,
2013-03-24 19:03:00,34.0,34.0,29.44,East,92,0.0,2.0,99,0.00,,,0.59,,2013-03-24 23:03:00,
2013-03-24 19:12:00,34.0,34.0,29.44,East,92,0.0,2.0,99,0.00,,,0.59,,2013-03-24 23:12:00,
2013-03-24 19:22:00,34.0,34.0,29.44,ESE,123,0.0,3.0,99,0.00,,,0.59,,2013-03-24 23:22:00,
2013-03-24 19:32:00,34.0,34.0,29.46,SE,128,0.0,2.0,99,0.00,,,0.59,,2013-03-24 23:32:00,
2013-03-24 19:42:00,34.0,34.0,29.46,SE,128,0.0,2.0,99,0.00,,,0.59,,2013-03-24 23:42:00,
2013-03-24 19:53:00,33.0,33.0,29.44,ESE,107,0.0,4.0,99,0.00,,,0.59,,2013-03-24 23:53:00,
2013-03-24 20:02:00,33.0,33.0,29.44,East,79,0.0,3.0,99,0.00,,,0.59,,2013-03-25 00:02:00,
2013-03-24 20:12:00,33.0,33.0,29.44,East,79,0.0,3.0,99,0.00,,,0.59,,2013-03-25 00:12:00,
2013-03-24 20:22:00,33.0,33.0,29.44,NNW,348,0.0,2.0,99,0.00,,,0.59,,2013-03-25 00:22:00,
2013-03-24 20:32:00,33.0,33.0,29.44,East,90,0.0,2.0,99,0.00,,,0.59,,2013-03-25 00:32:00,
2013-03-24 20:42:00,33.0,33.0,29.44,East,90,0.0,2.0,99,0.00,,,0.59,,2013-03-25 00:42:00,
2013-03-24 20:53:00,33.0,33.0,29.44,East,90,0.0,2.0,99,0.00,,,0.59,,2013-03-25 00:53:00,
2013-03-24 21:02:00,33.0,33.0,29.44,NE,37,2.0,9.0,99,0.00,,,0.59,,2013-03-25 01:02:00,
2013-03-24 21:12:00,33.0,33.0,29.44,NE,37,2.0,9.0,99,0.00,,,0.59,,2013-03-25 01:12:00,
2013-03-24 21:22:00,32.0,32.0,29.44,ESE,123,0.0,6.0,99,0.00,,,0.59,,2013-03-25 01:22:00,
2013-03-24 21:32:00,32.0,32.0,29.44,SSE,148,0.0,4.0,99,0.00,,,0.59,,2013-03-25 01:32:00,
2013-03-24 21:42:00,32.0,32.0,29.44,SSE,148,0.0,4.0,99,0.00,,,0.59,,2013-03-25 01:42:00,
2013-03-24 21:53:00,32.0,32.0,29.44,SSE,158,1.0,6.0,99,0.00,,,0.59,,2013-03-25 01:53:00,
2013-03-24 22:02:00,32.0,32.0,29.44,South,179,3.0,6.0,99,0.00,,,0.59,,2013-03-25 02:02:00,
2013-03-24 22:12:00,32.0,32.0,29.44,South,179,3.0,6.0,99,0.00,,,0.59,,2013-03-25 02:12:00,
2013-03-24 22:22:00,31.0,31.0,29.45,South,185,1.0,7.0,99,0.00,,,0.59,,2013-03-25 02:22:00,
2013-03-24 22:33:00,32.0,32.0,29.44,South,180,4.0,7.0,99,0.00,,,0.59,,2013-03-25 02:33:00,
2013-03-24 22:42:00,32.0,32.0,29.44,South,180,4.0,7.0,99,0.00,,,0.59,,2013-03-25 02:42:00,
2013-03-24 22:52:00,32.0,32.0,29.44,South,191,0.0,6.0,99,0.00,,,0.59,,2013-03-25 02:52:00,
2013-03-24 23:02:00,32.0,32.0,29.44,SSW,201,6.0,9.0,99,0.00,,,0.59,,2013-03-25 03:02:00,
2013-03-24 23:13:00,32.0,32.0,29.44,SSW,201,6.0,9.0,99,0.00,,,0.59,,2013-03-25 03:13:00,
2013-03-24 23:23:00,32.0,32.0,29.44,South,172,0.0,3.0,99,0.00,,,0.59,,2013-03-25 03:23:00,
2013-03-24 23:33:00,32.0,32.0,29.44,NE,53,1.0,5.0,99,0.00,,,0.59,,2013-03-25 03:33:00,
2013-03-24 23:43:00,32.0,32.0,29.44,NE,41,0.0,0.0,99,0.00,,,0.59,,2013-03-25 03:43:00,
2013-03-24 23:53:00,32.0,32.0,29.44,NE,41,0.0,0.0,99,0.00,,,0.59,,2013-03-25 03:53:00,